Temperature
20 20 19 19 19 18 18 18 18 18 18 17 17 17 17 17 17 17 17 17 17 17 17 16 16 17 16 16 16 16 16 16 16 16 16 16 16 16 15 15 15 15 15
20 20 20 19 19 18 18 18 18 18 18 17 17 17 17 17 17 17 17 17 16 16 16 16 16 16 16 16 16 16 16 16 16 16 16 16 15 15 15 15 15 14 14
20 20 20 19 19 19 18 18 18 18 18 17 17 17 17 17 17 17 17 16 16 16 16 16 16 16 16 16 16 16 16 16 16 15 15 15 15 15 15 14 14 14 14
20 20 20 19 19 18 18 18 18 18 18 17 17 17 17 17 17 16 16 16 16 16 16 16 16 16 16 16 16 16 16 16 15 15 15 15 15 15 14 14 14 14 13
20 20 20 19 19 19 18 18 18 18 17 17 17 17 17 16 16 16 16 16 16 16 16 16 16 16 16 15 15 15 15 15 15 15 15 14 14 14 14 14 13 13 13
20 20 20 19 19 19 19 18 18 18 17 17 17 17 17 16 17 16 16 16 16 16 16 16 15 15 15 15 15 15 15 15 15 14 14 14 14 14 14 13 13 13 12
20 20 19 19 19 19 18 18 18 18 17 17 17 17 16 17 17 16 16 16 16 15 15 15 15 15 15 15 15 15 15 15 15 14 14 14 14 14 13 13 13 12 12
20 20 20 19 19 19 18 18 18 18 17 17 17 16 16 16 16 16 16 16 15 15 15 15 15 14 14 14 14 14 14 14 14 14 14 14 13 13 13 13 12 12 12
20 19 19 19 19 19 18 18 18 17 17 17 16 16 16 16 16 16 16 15 15 15 14 14 14 14 14 14 14 14 13 13 13 13 13 13 13 13 13 12 12 12 12
19 19 19 19 19 18 18 17 17 17 17 16 16 16 15 15 16 15 15 14 14 14 14 14 14 14 14 13 13 13 13 13 13 13 13 13 12 12 12 12 12 12 12
19 19 18 18 18 18 17 17 17 16 16 16 16 15 15 15 15 15 15 14 14 13 13 13 13 13 13 13 13 13 12 12 12 12 12 12 12 12 12 12 11 11 11
18 18 18 17 17 17 17 17 16 16 15 15 15 15 14 14 14 14 14 14 14 13 13 13 13 13 13 13 12 12 12 12 11 11 11 11 11 11 11 11 11 11 11
18 17 17 17 17 16 16 16 15 15 15 14 14 14 14 14 14 14 14 14 13 13 13 13 13 12 12 12 12 12 12 11 11 11 11 11 11 11 11 10 10 10 10
17 17 16 16 16 16 15 15 15 14 14 14 14 14 13 13 13 13 13 13 13 12 12 12 12 12 12 11 11 11 11 11 11 11 11 10 10 10 10 10 10 9 9
16 16 15 15 15 15 15 15 14 14 14 14 13 13 13 13 13 13 13 12 12 12 12 11 11 11 11 11 10 10 10 10 10 10 10 10 10 10 10 9 9 9 9
15 15 15 14 14 14 14 14 14 14 13 13 13 13 13 12 12 12 12 12 12 12 11 11 11 10 10 10 10 10 10 10 10 9 9 9 9 9 9 9 9 9 9
15 14 14 14 14 13 13 13 13 13 13 13 12 12 12 12 12 12 11 11 11 11 10 10 10 10 10 10 10 10 10 9 9 9 9 9 9 9 9 8 8 8 8
14 14 14 13 13 13 13 13 13 12 12 12 12 12 12 11 11 11 11 11 10 10 10 10 10 9 9 9 9 9 9 9 9 8 8 8 8 8 8 8 8 8 8
13 13 13 13 13 12 12 12 12 12 11 11 11 11 11 11 10 10 10 10 10 9 9 9 9 9 9 9 9 8 8 8 8 8 8 8 8 8 8 8 8 7 7
13 13 13 12 12 12 12 12 11 11 11 11 10 10 10 10 10 10 9 9 9 9 8 8 8 8 8 8 8 8 8 8 8 7 7 7 7 7 7 7 7 7 7
12 12 12 12 11 11 11 11 11 11 11 10 10 10 10 9 9 9 9 9 8 8 8 8 8 8 8 7 7 7 7 7 7 7 7 7 7 7 7 7 7 7 7
12 12 11 11 11 11 10 10 10 10 10 10 10 9 9 9 9 9 9 8 8 8 8 8 8 7 7 7 7 7 7 7 7 7 7 7 6 6 7 7 7 7 7
11 11 11 10 10 10 10 10 10 10 9 9 9 9 9 9 9 8 8 8 8 7 7 7 7 7 7 7 7 6 7 7 6 6 6 6 6 6 6 6 6 6 7
11 11 10 10 10 10 10 10 9 9 9 9 9 8 8 8 8 8 8 8 7 7 7 7 7 7 6 6 6 6 6 6 6 6 6 6 6 6 6 6 6 6 6
10 10 10 10 10 10 9 9 9 9 9 8 8 8 8 8 8 7 7 7 7 7 6 6 6 6 6 6 6 6 6 6 6 6 6 6 6 6 6 6 6 6 6
10 10 10 9 9 9 9 9 8 8 8 8 8 7 7 7 7 7 7 7 6 6 6 6 6 5 6 6 6 6 6 6 6 6 5 5 5 5 5 5 5 6 6
Wind_Speed
8 7 6 6 5 5 5 5 5 5 5 6 6 6 6 6 6 5 6 6 7 7 7 7 7 7 6 6 6 7 7 7 7 6 4 4 5 6 5 6 6 6 7
8 7 7 6 6 5 5 5 5 5 5 5 5 5 5 5 5 6 7 6 7 8 8 7 7 6 7 7 6 7 7 6 7 7 5 5 6 6 6 6 6 5 5
9 8 7 7 6 5 5 4 4 4 5 5 4 5 4 4 5 5 6 6 7 7 7 7 7 7 7 6 6 7 6 6 5 6 6 4 4 5 5 5 4 4 4
9 8 7 7 6 5 4 4 4 4 4 4 4 4 3 3 3 4 5 5 6 6 6 6 6 6 7 6 6 6 5 5 5 6 5 5 4 4 4 4 4 4 4
9 8 7 6 6 5 4 4 4 4 4 4 3 3 3 3 2 3 4 4 5 5 5 5 4 3 3 4 5 5 5 6 6 6 6 5 5 4 5 5 4 3 3
9 8 7 6 6 5 4 4 3 3 3 3 3 3 2 2 2 3 4 4 4 4 4 4 4 3 3 3 4 5 5 6 7 6 6 6 6 5 4 5 5 4 4
8 7 7 6 6 5 4 4 3 3 3 3 2 2 2 1 1 2 4 4 3 3 3 3 4 2 3 3 3 4 4 4 5 6 6 6 5 5 5 6 6 6 5
8 8 7 6 5 4 3 3 3 3 3 2 2 2 1 0 1 1 4 4 3 3 2 2 3 3 2 3 3 3 3 2 2 3 4 4 4 3 5 5 5 4 3
8 7 6 6 6 5 4 3 3 3 3 3 2 2 2 1 1 1 5 3 2 2 1 1 2 2 2 3 3 3 3 2 1 1 1 1 1 2 3 4 4 5 4
7 6 6 6 5 5 4 4 3 3 3 3 2 2 2 1 1 1 4 3 2 2 2 1 1 1 1 2 4 4 4 3 2 1 1 2 3 4 5 5 5 5 4
6 6 5 4 4 4 4 4 4 4 4 3 3 3 2 1 2 1 2 3 3 3 2 2 0 2 0 2 4 4 3 3 3 3 2 2 2 2 3 4 4 4 4
6 6 5 4 3 3 3 3 3 3 4 4 3 3 2 1 0 2 1 2 5 3 2 2 1 2 1 3 3 2 2 4 3 3 3 2 2 2 2 2 3 3 3
6 5 4 4 3 2 3 3 3 3 3 3 3 2 1 1 2 3 3 2 3 2 1 2 2 1 3 3 2 3 4 3 3 3 2 2 1 1 1 2 3 2 1
6 5 4 4 3 3 1 1 1 1 2 2 2 2 1 1 0 0 1 2 3 2 1 2 4 3 3 0 2 3 2 1 2 2 1 1 1 1 2 2 3 3 3
5 5 4 3 3 3 2 2 1 2 1 1 1 1 1 1 1 3 2 1 1 1 2 2 1 1 1 1 1 1 1 1 1 1 1 1 2 2 2 2 2 3 3
4 4 3 3 3 3 3 3 6 4 5 5 5 4 3 4 3 2 1 2 2 1 2 1 1 1 1 1 1 1 1 1 1 1 1 1 1 1 1 2 3 3 3
3 3 3 3 3 3 3 3 2 3 4 4 3 4 4 3 2 1 1 1 0 1 1 1 1 1 1 1 1 1 1 1 1 1 1 1 1 1 2 2 3 3 3
2 2 1 2 2 2 2 2 2 2 1 1 2 3 2 2 2 1 1 2 2 1 1 1 1 1 2 2 2 2 1 1 1 2 2 2 2 2 2 2 2 3 3
1 1 1 1 1 1 1 1 1 2 1 1 2 3 3 4 4 2 2 0 1 1 1 1 1 2 2 2 2 2 2 2 2 2 2 2 2 2 2 2 2 2 4
2 3 1 1 1 2 2 2 2 2 2 1 1 1 2 2 2 2 1 0 0 1 1 1 1 2 2 2 1 1 2 2 2 2 2 2 2 2 3 3 3 4 4
2 3 3 2 2 2 2 2 1 1 1 1 1 3 3 0 1 1 1 1 1 1 1 1 1 2 2 2 2 2 2 2 2 2 2 2 3 3 3 4 4 5 5
2 2 2 2 2 2 2 2 2 2 2 2 2 2 1 1 1 1 1 1 1 1 1 1 2 1 2 2 2 2 3 3 2 3 3 3 3 4 4 4 5 5 5
2 3 3 3 3 3 2 2 2 2 2 2 1 2 1 1 1 1 1 2 1 1 1 1 2 2 2 2 2 2 3 3 4 4 4 4 4 4 4 5 5 6 5
3 3 3 3 3 2 2 2 2 2 2 2 1 1 1 1 1 2 2 2 2 2 2 2 2 3 4 3 3 3 3 5 6 5 6 6 6 5 4 4 5 6 6
3 3 3 3 2 2 2 2 2 2 2 1 1 1 1 1 1 1 2 2 2 2 2 2 2 2 3 4 4 5 5 5 7 8 7 7 7 7 6 6 6 6 6
3 3 3 3 2 2 2 2 2 2 2 2 2 2 2 2 2 2 2 2 2 2 2 2 3 3 4 4 5 6 5 6 7 9 8 7 7 7 7 7 8 7 8
Wind_Direction
187 191 196 199 203 211 219 228 233 240 240 242 248 254 259 262 260 255 254 247 242 240 240 239 244 249 247 251 249 246 244 243 251 260 255 242 233 235 220 223 222 218 206
181 185 192 198 205 213 214 222 229 236 241 243 248 253 260 265 262 257 258 253 250 246 244 244 247 246 242 248 252 252 251 248 249 256 258 254 246 231 223 224 223 217 206
175 181 186 195 200 210 220 226 230 238 244 246 245 252 261 268 263 258 256 254 252 252 250 248 251 251 250 251 250 252 253 250 250 252 259 258 252 228 216 220 222 215 208
176 181 186 195 202 209 216 221 227 232 237 239 241 250 256 261 266 264 258 254 254 253 253 257 261 256 256 257 251 250 251 254 250 249 249 247 241 224 210 215 221 214 218
177 182 184 188 194 204 212 219 222 227 229 224 226 236 249 253 274 280 267 255 257 260 256 256 259 270 294 274 268 264 258 253 252 250 248 243 236 218 218 218 218 212 224
179 182 179 183 189 196 201 204 206 210 218 216 219 227 244 274 12 327 292 270 262 261 260 261 261 251 238 229 248 254 258 256 259 255 254 250 244 236 225 217 216 214 227
179 181 180 186 189 195 203 200 199 202 201 204 218 225 235 306 360 293 287 276 267 268 272 281 281 279 261 255 231 222 237 243 250 257 258 257 252 238 226 225 220 225 232
179 182 184 189 186 181 189 195 202 206 205 205 207 211 226 45 47 298 286 254 263 265 263 260 271 289 308 308 279 266 268 268 259 255 261 263 260 242 230 231 227 226 218
177 180 182 187 183 182 188 194 198 201 201 205 206 219 234 158 72 299 287 250 241 244 259 274 278 277 26 329 277 267 270 271 110 103 313 252 209 202 213 217 210 212 223
171 174 176 178 184 185 182 189 195 201 203 208 200 217 231 236 110 325 294 264 252 248 236 237 52 343 13 301 264 259 260 269 278 256 206 196 198 187 198 220 222 225 229
158 156 161 167 179 183 174 177 188 201 204 208 197 204 219 266 152 117 312 288 277 267 264 265 349 108 241 282 276 269 279 279 258 250 244 229 213 208 208 211 227 234 234
147 144 141 144 159 167 168 175 189 206 208 204 201 209 208 198 138 142 173 289 309 280 281 292 42 100 226 256 271 312 293 264 243 240 241 234 226 227 217 209 214 235 266
139 135 135 133 135 151 173 182 190 212 233 231 223 221 220 197 148 147 177 223 275 276 305 49 68 185 224 212 216 256 251 245 241 238 240 244 250 232 213 197 187 186 191
142 142 141 137 135 124 137 184 188 194 235 246 258 252 241 216 307 325 229 208 203 217 222 160 183 207 233 261 195 217 241 278 276 262 262 243 217 211 215 201 199 196 194
141 140 140 140 136 133 114 74 71 64 21 271 247 251 268 257 33 6 331 308 287 255 246 214 200 194 210 209 222 228 222 210 245 269 261 230 215 212 217 206 213 210 209
139 143 148 150 150 150 136 116 64 60 65 53 34 19 65 60 99 103 25 356 358 317 253 226 227 247 255 260 247 227 222 238 258 249 242 248 252 238 218 214 219 222 211
142 150 161 162 164 170 168 168 155 118 104 89 68 50 45 70 101 139 174 164 191 228 237 295 295 295 301 303 305 295 287 311 301 269 261 259 258 253 243 229 224 228 225
142 141 181 178 185 190 183 179 185 183 167 111 114 107 107 100 100 128 185 185 143 158 300 315 307 319 315 315 312 304 298 264 248 262 262 265 263 257 254 250 236 236 233
128 117 138 144 164 161 156 159 160 155 149 134 126 117 139 157 151 149 193 174 91 94 17 351 336 323 314 306 303 298 293 284 285 278 273 277 267 264 265 258 245 224 248
121 96 118 148 140 145 151 155 156 160 159 151 135 99 136 153 130 126 155 67 37 58 13 340 330 322 311 304 298 288 275 275 273 266 274 275 271 267 263 258 253 239 238
119 125 161 182 155 156 155 142 147 161 145 130 95 54 350 217 90 78 76 58 353 355 6 345 335 319 312 307 303 291 281 279 278 277 276 269 265 264 264 259 254 252 248
139 140 138 127 123 125 128 126 118 109 107 107 109 112 273 289 65 76 77 60 25 11 1 334 329 332 328 320 307 297 292 292 292 289 284 274 264 258 255 254 255 252 249
140 125 122 116 115 128 144 121 118 120 116 112 104 104 111 60 49 38 33 28 18 7 4 350 339 345 346 333 327 316 306 302 296 290 283 279 274 268 264 260 255 252 250
131 130 124 121 123 129 123 121 118 112 106 98 93 80 68 47 26 21 3 7 2 4 10 5 359 358 351 337 328 321 327 321 309 294 286 283 278 275 271 268 264 259 255
121 119 120 117 115 112 106 103 97 95 91 85 73 51 49 46 40 31 22 26 15 11 9 360 352 351 349 341 338 339 350 331 309 303 290 279 275 274 273 270 269 267 261
112 112 109 106 104 98 92 86 85 81 75 68 57 45 35 40 43 36 22 16 1 356 344 341 347 343 335 330 348 356 350 325 305 296 287 279 276 274 274 270 270 267 266
Height
1542 1543 1544 1545 1545 1545 1546 1546 1546 1546 1546 1546 1546 1546 1546 1545 1545 1544 1545 1544 1544 1545 1545 1545 1546 1546 1547 1548 1548 1548 1548 1548 1547 1547 1547 1547 1547 1546 1547 1547 1547 1547 1547
1540 1541 1542 1543 1543 1544 1544 1544 1544 1544 1544 1544 1543 1543 1543 1542 1542 1541 1541 1541 1541 1541 1541 1542 1542 1542 1542 1543 1543 1543 1543 1543 1543 1542 1542 1542 1542 1542 1542 1542 1542 1543 1543
1538 1539 1540 1541 1541 1542 1542 1542 1542 1542 1542 1541 1541 1540 1540 1539 1539 1538 1538 1538 1538 1538 1538 1538 1538 1538 1538 1539 1539 1539 1539 1539 1538 1538 1537 1537 1537 1537 1537 1537 1538 1538 1538
1536 1537 1538 1539 1540 1540 1540 1540 1540 1540 1539 1539 1538 1538 1537 1536 1536 1536 1535 1535 1534 1534 1535 1535 1534 1534 1534 1534 1534 1534 1534 1534 1533 1533 1532 1532 1532 1532 1532 1532 1532 1533 1533
1533 1535 1535 1536 1537 1538 1538 1538 1538 1537 1537 1537 1536 1536 1535 1534 1533 1533 1533 1532 1531 1531 1531 1531 1531 1531 1530 1530 1530 1530 1530 1529 1529 1528 1528 1527 1527 1527 1527 1527 1528 1528 1529
1531 1532 1533 1534 1535 1535 1535 1535 1535 1535 1535 1534 1534 1533 1533 1532 1531 1530 1530 1529 1529 1528 1528 1528 1527 1527 1527 1526 1526 1525 1525 1525 1524 1524 1523 1523 1523 1523 1523 1523 1523 1524 1524
1528 1529 1531 1531 1532 1533 1533 1533 1533 1533 1532 1532 1531 1531 1530 1530 1529 1528 1527 1527 1526 1525 1525 1524 1524 1524 1523 1523 1522 1521 1521 1520 1520 1520 1519 1519 1519 1518 1518 1518 1519 1519 1520
1525 1526 1528 1529 1530 1530 1530 1530 1530 1530 1530 1530 1529 1528 1528 1527 1526 1526 1525 1524 1523 1522 1521 1521 1521 1520 1520 1520 1519 1519 1518 1517 1517 1516 1516 1515 1515 1515 1514 1515 1515 1515 1516
1522 1523 1524 1526 1526 1526 1526 1527 1527 1527 1527 1527 1526 1526 1525 1524 1524 1523 1522 1521 1521 1520 1519 1518 1518 1517 1517 1516 1516 1515 1514 1514 1513 1513 1512 1511 1511 1511 1511 1511 1511 1512 1512
1518 1520 1521 1522 1522 1523 1523 1524 1525 1524 1524 1524 1523 1523 1522 1522 1521 1520 1519 1519 1518 1517 1516 1515 1515 1514 1514 1513 1513 1512 1511 1511 1510 1509 1509 1508 1508 1508 1507 1508 1508 1509 1509
1514 1516 1518 1519 1520 1520 1520 1521 1521 1521 1521 1521 1520 1520 1519 1519 1518 1517 1516 1515 1515 1515 1514 1513 1512 1511 1510 1510 1509 1509 1508 1508 1507 1507 1506 1506 1505 1505 1504 1504 1504 1505 1506
1512 1513 1515 1516 1517 1518 1517 1518 1518 1519 1519 1518 1517 1517 1516 1515 1515 1514 1513 1512 1512 1511 1511 1510 1509 1508 1507 1507 1506 1505 1505 1505 1505 1504 1504 1503 1503 1502 1502 1501 1501 1501 1502
1509 1511 1513 1513 1514 1515 1515 1515 1515 1516 1517 1516 1515 1515 1514 1513 1512 1511 1510 1509 1509 1508 1507 1507 1506 1505 1504 1504 1503 1503 1502 1502 1502 1502 1501 1500 1500 1499 1499 1498 1498 1498 1498
1507 1508 1510 1511 1511 1512 1512 1513 1513 1512 1513 1513 1513 1512 1511 1510 1509 1508 1507 1507 1506 1505 1505 1504 1503 1502 1502 1501 1500 1500 1500 1499 1499 1499 1498 1497 1497 1496 1496 1496 1496 1495 1496
1505 1506 1507 1508 1508 1508 1509 1510 1510 1509 1508 1509 1509 1508 1508 1508 1506 1505 1505 1505 1503 1503 1502 1502 1501 1501 1500 1500 1499 1498 1497 1496 1496 1496 1495 1495 1494 1494 1494 1493 1493 1493 1493
1503 1504 1505 1506 1506 1506 1506 1506 1506 1507 1506 1506 1505 1505 1504 1504 1503 1502 1502 1501 1500 1500 1500 1500 1499 1499 1498 1498 1497 1496 1495 1494 1494 1493 1493 1492 1492 1492 1491 1491 1491 1491 1490
1501 1502 1503 1503 1504 1504 1504 1504 1504 1504 1504 1503 1503 1502 1501 1501 1500 1500 1499 1498 1498 1497 1498 1498 1497 1497 1496 1495 1495 1494 1493 1492 1491 1491 1490 1490 1490 1489 1489 1489 1488 1488 1488
1500 1500 1501 1501 1501 1502 1501 1501 1502 1502 1502 1501 1500 1500 1499 1498 1498 1497 1497 1496 1496 1495 1495 1495 1495 1495 1494 1493 1493 1492 1491 1490 1489 1488 1488 1487 1487 1487 1487 1487 1486 1486 1486
1498 1498 1499 1499 1499 1499 1499 1499 1500 1499 1500 1499 1499 1498 1497 1496 1496 1495 1495 1495 1495 1494 1493 1493 1493 1493 1492 1491 1490 1489 1489 1488 1487 1486 1486 1485 1485 1485 1484 1484 1484 1483 1484
1496 1495 1496 1497 1497 1497 1497 1497 1498 1498 1498 1498 1498 1497 1496 1495 1495 1494 1494 1494 1494 1493 1492 1492 1491 1491 1490 1489 1488 1487 1486 1486 1485 1484 1483 1483 1482 1482 1482 1482 1482 1481 1481
1495 1495 1495 1495 1495 1495 1495 1496 1496 1497 1496 1496 1496 1495 1495 1495 1494 1494 1493 1493 1492 1492 1491 1490 1489 1489 1488 1487 1486 1485 1484 1483 1482 1482 1481 1481 1480 1479 1479 1479 1479 1479 1479
1494 1493 1494 1494 1494 1494 1494 1494 1495 1495 1495 1495 1495 1494 1494 1494 1494 1493 1493 1492 1491 1490 1489 1488 1488 1487 1486 1485 1484 1483 1482 1481 1480 1480 1479 1478 1478 1477 1477 1477 1476 1476 1476
1492 1492 1493 1493 1493 1493 1494 1494 1494 1494 1494 1494 1494 1493 1493 1493 1492 1492 1491 1491 1490 1489 1488 1487 1487 1486 1485 1484 1483 1482 1480 1479 1478 1477 1477 1476 1476 1475 1475 1474 1474 1473 1473
1491 1492 1492 1493 1493 1493 1493 1493 1493 1493 1493 1493 1493 1493 1492 1492 1491 1491 1490 1490 1489 1488 1487 1486 1485 1484 1483 1482 1481 1480 1478 1477 1476 1475 1474 1473 1473 1472 1472 1471 1471 1470 1470
1491 1491 1492 1492 1493 1493 1493 1493 1493 1492 1492 1492 1492 1492 1492 1491 1491 1490 1489 1488 1487 1486 1485 1484 1483 1482 1481 1480 1479 1477 1476 1474 1473 1472 1471 1470 1470 1469 1468 1468 1467 1467 1467
1491 1491 1492 1492 1492 1492 1492 1492 1492 1492 1492 1492 1492 1491 1491 1490 1490 1489 1488 1487 1486 1485 1484 1483 1481 1480 1479 1477 1476 1474 1472 1471 1470 1468 1467 1467 1466 1466 1465 1464 1464 1463 1463